Location: N�rnberg
(49.4489°N, 11.0797°E)
Time: 16:55:27
(UTC+01:00)

ISS - Pass Details

Date: 21 March 2017
Orbit: 399 x 409 km, 51.6° (Epoch: 25 March)

Event Time Altitude Azimuth Distance (km) Brightness Sun altitude
Exits shadow 04:36:50 43° 219° (SW) 586 -3.5 -16.6°
Maximum altitude 04:37:00 44° 209° (SSW) 582 -3.4 -16.6°
Drops below altitude 10° 04:40:10 10° 137° (SE) 1,470 -0.7 -16.1°
Sets 04:42:18 0° 130° (SE) 2,329 0.5 -15.8°
